Time,TemperatureF,DewpointF,PressureIn,WindDirection,WindDirectionDegrees,WindSpeedMPH,WindSpeedGustMPH,Humidity,HourlyPrecipIn,Conditions,Clouds,dailyrainin,SoftwareType,DateUTC
2013-08-20 00:21:00,62.0,49.0,30.01,NNW,332,2.0,3.0,63,0.00,,,0.00,,2013-08-20 07:21:00,
2013-08-20 00:52:00,61.0,50.0,30.01,NNW,332,2.0,3.0,66,0.00,,,0.00,,2013-08-20 07:52:00,
2013-08-20 01:21:00,61.0,50.0,30.02,NNW,332,1.0,3.0,66,0.00,,,0.00,,2013-08-20 08:21:00,
2013-08-20 01:52:00,60.0,49.0,30.01,NNW,332,0.0,2.0,68,0.00,,,0.00,,2013-08-20 08:52:00,
2013-08-20 02:21:00,60.0,50.0,30.02,NNW,332,2.0,3.0,70,0.00,,,0.00,,2013-08-20 09:21:00,
2013-08-20 02:53:00,59.0,49.0,30.02,NNW,332,2.0,3.0,70,0.00,,,0.00,,2013-08-20 09:53:00,
2013-08-20 03:22:00,60.0,50.0,30.02,NNW,332,3.0,6.0,70,0.00,,,0.00,,2013-08-20 10:22:00,
2013-08-20 03:52:00,57.0,50.0,30.03,NNW,332,0.0,2.0,76,0.00,,,0.00,,2013-08-20 10:52:00,
2013-08-20 04:21:00,57.0,50.0,30.03,NNW,332,1.0,3.0,78,0.00,,,0.00,,2013-08-20 11:21:00,
2013-08-20 04:52:00,54.0,50.0,30.03,NNW,332,0.0,1.0,85,0.00,,,0.00,,2013-08-20 11:52:00,
2013-08-20 05:21:00,51.0,47.0,30.03,NNW,332,2.0,3.0,85,0.00,,,0.00,,2013-08-20 12:21:00,
2013-08-20 05:52:00,53.0,48.0,30.04,NNW,332,2.0,3.0,84,0.00,,,0.00,,2013-08-20 12:52:00,
2013-08-20 06:21:00,52.0,48.0,30.03,NNW,332,2.0,3.0,86,0.00,,,0.00,,2013-08-20 13:21:00,
2013-08-20 06:52:00,50.0,45.0,30.04,NNW,332,3.0,3.0,84,0.00,,,0.00,,2013-08-20 13:52:00,
2013-08-20 07:21:00,52.0,47.0,30.05,NNE,19,1.0,2.0,82,0.00,,,0.00,,2013-08-20 14:21:00,
2013-08-20 09:30:00,-999.0,-99.9,30.06,NNE,19,1.0,2.0,61,0.00,,,0.00,,2013-08-20 16:30:00,
2013-08-20 09:52:00,69.0,52.0,30.06,NE,42,1.0,3.0,54,0.00,,,0.00,,2013-08-20 16:52:00,
2013-08-20 10:24:00,70.0,48.0,30.06,ESE,113,1.0,3.0,45,0.00,,,0.00,,2013-08-20 17:24:00,
2013-08-20 10:52:00,74.0,43.0,30.05,North,355,3.0,6.0,33,0.00,,,0.00,,2013-08-20 17:52:00,
2013-08-20 11:21:00,76.0,41.0,30.05,North,355,3.0,5.0,29,0.00,,,0.00,,2013-08-20 18:21:00,
2013-08-20 11:52:00,78.0,40.0,30.04,NNE,19,1.0,3.0,26,0.00,,,0.00,,2013-08-20 18:52:00,
2013-08-20 12:52:00,80.0,33.0,30.03,NNE,28,2.0,7.0,18,0.00,,,0.00,,2013-08-20 19:52:00,
2013-08-20 13:21:00,81.0,37.0,30.02,North,9,3.0,7.0,21,0.00,,,0.00,,2013-08-20 20:21:00,
2013-08-20 13:52:00,82.0,31.0,30.01,North,350,3.0,7.0,16,0.00,,,0.00,,2013-08-20 20:52:00,
2013-08-20 14:22:00,84.0,28.0,30.00,NNW,346,1.0,9.0,13,0.00,,,0.00,,2013-08-20 21:22:00,
2013-08-20 14:55:00,87.0,28.0,29.99,NNW,345,7.0,10.0,12,0.00,,,0.00,,2013-08-20 21:55:00,
2013-08-20 16:53:00,87.0,19.0,29.96,North,353,7.0,12.0,8,0.00,,,0.00,,2013-08-20 23:53:00,
2013-08-20 17:22:00,87.0,21.0,29.96,NNE,19,9.0,13.0,9,0.00,,,0.00,,2013-08-21 00:22:00,
2013-08-20 17:52:00,86.0,23.0,29.95,NNE,21,7.0,12.0,10,0.00,,,0.00,,2013-08-21 00:52:00,
2013-08-20 18:21:00,85.0,27.0,29.95,NNE,13,7.0,12.0,12,0.00,,,0.00,,2013-08-21 01:21:00,
2013-08-20 18:52:00,84.0,31.0,29.95,NNW,339,6.0,12.0,15,0.00,,,0.00,,2013-08-21 01:52:00,
2013-08-20 19:22:00,82.0,24.0,29.94,North,6,6.0,12.0,12,0.00,,,0.00,,2013-08-21 02:22:00,
2013-08-20 19:52:00,80.0,25.0,29.95,North,356,6.0,12.0,13,0.00,,,0.00,,2013-08-21 02:52:00,
2013-08-20 20:12:00,79.0,26.0,29.95,North,350,6.0,9.0,14,0.00,,,0.00,,2013-08-21 03:12:00,
2013-08-20 20:22:00,78.0,27.0,29.96,NNW,348,5.0,6.0,15,0.00,,,0.00,,2013-08-21 03:22:00,
2013-08-20 20:55:00,75.0,27.0,29.96,NNW,342,5.0,7.0,17,0.00,,,0.00,,2013-08-21 03:55:00,
2013-08-20 21:13:00,74.0,29.0,29.97,NNW,340,5.0,8.0,19,0.00,,,0.00,,2013-08-21 04:13:00,
2013-08-20 21:23:00,73.0,30.0,29.97,NNW,336,5.0,7.0,20,0.00,,,0.00,,2013-08-21 04:23:00,
2013-08-20 21:54:00,70.0,34.0,29.99,NNW,331,3.0,5.0,26,0.00,,,0.00,,2013-08-21 04:54:00,
2013-08-20 22:22:00,69.0,33.0,29.99,NW,321,5.0,6.0,26,0.00,,,0.00,,2013-08-21 05:22:00,
2013-08-20 22:52:00,68.0,32.0,29.99,NW,308,5.0,5.0,26,0.00,,,0.00,,2013-08-21 05:52:00,
2013-08-20 23:22:00,68.0,34.0,29.99,WNW,299,7.0,9.0,28,0.00,,,0.00,,2013-08-21 06:22:00,
2013-08-20 23:52:00,68.0,38.0,30.00,WNW,296,6.0,9.0,33,0.00,,,0.00,,2013-08-21 06:52:00,